Probability
0 0 0 0 0 0 0 0 0 0 0 0 0 0 0 0 0 0 0 0 0 0 0 0 0 0 0 0 0 0 0 0 0 0 0 0 0 0 0 0 0 0 0 0
0 0 0 0 0 0 0 0 0 0 0 0 0 0 0 0 0 0 0 0 0 0 0 0 0 0 0 0 0 0 0 0 0 0 0 0 0 0 0 0 0 0 0 0
0 0 0 0 0 0 0 0 0 0 0 0 0 0 0 0 0 0 0 0 0 0 0 0 0 0 0 0 0 0 0 0 0 0 0 0 0 0 0 0 0 0 0 0
0 0 0 0 0 0 0 0 0 0 0 0 0 0 0 0 0 0 0 0 0 0 0 0 0 0 0 0 0 0 0 0 0 0 0 0 0 0 0 0 0 0 0 0
0 0 0 0 0 0 0 0 0 0 0 0 0 0 0 0 0 0 0 0 0 0 0 0 0 0 0 0 0 0 0 0 0 0 0 0 0 0 0 0 0 0 0 0
0 0 0 0 0 0 0 0 0 0 0 0 0 0 0 0 0 0 0 0 0 0 0 0 0 0 0 0 0 0 0 0 0 0 0 0 0 0 0 0 0 0 0 0
0 0 0 0 0 0 0 0 0 0 0 0 0 0 0 0 0 0 0 0 0 0 0 0 0 0 0 0 0 0 0 0 0 0 0 0 0 0 0 0 0 0 0 0
0 0 0 0 0 0 0 0 0 0 0 0 0 0 0 0 0 0 0 0 0 0 0 0 0 0 0 0 0 0 0 0 0 0 0 0 0 0 0 0 0 0 0 0
0 0 0 0 0 0 0 0 0 0 0 0 0 0 0 0 0 0 0 0 0 0 0 0 0 0 0 0 0 0 0 0 0 0 0 0 0 0 0 0 0 0 0 0
0 0 0 0 0 0 0 0 0 0 0 0 0 0 0 0 0 0 0 0 0 0 0 0 0 0 0 0 0 0 0 0 0 0 0 0 0 0 0 0 0 0 0 0
0 0 0 0 0 0 0 0 0 0 0 0 0 0 0 0 0 0 0 0 0 0 0 0 0 0 0 0 0 0 0 0 0 0 0 0 0 0 0 0 0 0 0 0
0 0 0 0 0 0 0 0 0 0 0 0 0 0 0 0 0 0 0 0 0 0 0 0 0 0 0 0 0 0 0 0 0 0 0 0 0 0 0 0 0 0 0 0
0 0 0 0 0 0 0 0 0 0 0 0 0 0 0 0 0 0 0 0 0 0 0 0 0 0 0 0 0 0 0 0 0 0 0 0 0 0 0 0 0 0 0 0
0 0 0 0 0 0 0 0 0 0 0 0 0 0 0 0 0 0 0 0 0 0 0 0 0 0 0 0 0 0 0 0 0 0 0 0 0 0 0 0 0 0 0 0
0 0 0 0 0 0 0 0 0 0 0 0 0 0 0 0 0 0 0 0 0 0 0 0 0 0 0 0 0 0 0 0 0 0 0 0 0 0 0 0 0 0 0 0
0 0 0 0 0 0 0 0 0 0 0 0 0 0 0 0 0 0 0 0 0 0 0 0 0 0 0 0 0 0 0 0 0 0 0 0 0 0 0 0 0 0 0 0
0 0 0 0 0 0 0 0 0 0 0 0 0 0 0 0 0 0 0 0 0 0 0 0 0 0 0 0 0 0 0 0 0 0 0 0 0 0 0 0 0 0 0 0
0 0 0 0 0 0 0 0 0 0 0 0 0 0 0 0 0 0 0 0 0 0 0 0 0 0 0 0 0 0 0 0 0 0 0 0 0 0 0 0 0 0 0 0
0 0 0 0 0 0 0 0 0 0 0 0 0 0 0 0 0 0 0 0 0 0 0 0 0 0 0 0 0 0 0 0 0 0 0 0 0 0 0 0 0 0 0 0
0 0 0 0 0 0 0 0 0 0 0 0 0 0 0 0 0 0 0 0 0 0 0 0 0 0 0 0 0 0 0 0 0 0 0 0 0 0 0 0 0 0 0 0
0 0 0 0 0 0 0 0 0 0 0 0 0 0 0 0 0 0 0 0 0 0 0 0 0 0 0 0 0 0 0 0 0 0 0 0 0 0 0 0 0 0 0 0
0 0 0 0 0 0 0 0 0 0 0 0 0 0 0 0 0 0 0 0 0 0 0 0 0 0 0 0 0 0 0 0 0 0 0 0 0 0 0 0 0 0 0 0
0 0 0 0 0 0 0 0 0 0 0 0 0 0 0 0 0 0 0 0 0 0 0 0 0 0 0 0 0 0 0 0 0 0 0 0 0 0 0 0 0 0 0 0
0 0 0 0 0 0 0 0 0 0 0 0 0 0 0 0 0 0 0 0 0 0 0 0 0 0 0 0 0 0 0 0 0 0 0 0 0 0 0 0 0 0 0 0
0 0 0 0 0 0 0 0 0 0 0 0 0 0 0 0 0 0 0 0 0 0 0 0 0 0 0 0 0 0 0 0 0 0 0 0 0 0 0 0 0 0 0 0
0 0 0 0 0 0 0 0 0 0 0 0 0 0 0 0 0 0 0 0 0 0 0 0 0 0 0 0 0 0 0 0 0 0 0 0 0 0 0 0 0 0 0 0
0 0 0 0 0 0 0 0 0 0 0 0 0 0 0 0 0 0 0 0 0 0 0 0 0 0 0 0 0 0 0 0 0 0 0 0 0 0 0 0 0 0 0 0
Wind_Speed
6 5 3 5 7 5 7 8 8 8 8 9 6 5 5 4 3 2 3 3 2 2 3 3 3 3 3 3 3 2 2 2 3 2 2 2 3 3 2 3 4 4 4 4
5 4 4 7 9 9 9 8 8 8 11 7 4 2 3 3 3 3 3 4 4 3 3 3 3 3 3 3 3 2 2 2 2 2 2 2 3 2 2 2 3 3 4 4
5 4 4 8 8 8 5 6 7 10 10 3 3 4 5 4 4 4 4 3 4 4 4 4 4 4 4 4 3 2 2 2 2 2 2 3 3 3 3 3 3 3 4 4
2 2 7 8 2 5 6 6 6 6 5 4 6 5 4 3 3 3 3 3 4 4 4 4 4 4 3 3 2 1 1 2 2 2 2 2 2 2 2 2 3 3 4 4
2 3 8 7 2 3 4 6 5 6 6 4 3 2 3 2 2 3 3 3 3 3 3 3 4 3 2 2 1 1 1 2 2 2 2 2 2 2 2 2 2 2 3 4
3 3 7 6 2 1 2 6 4 5 5 3 0 2 4 2 1 2 2 2 2 2 2 2 3 2 1 1 1 2 2 2 2 2 3 3 3 2 2 2 2 2 2 2
5 5 9 6 2 3 3 7 2 3 4 3 5 6 4 1 2 2 2 2 1 1 2 2 2 1 1 1 2 2 1 0 1 2 2 3 2 2 2 2 2 2 1 1
5 5 10 2 4 6 7 2 2 3 3 4 5 4 2 2 2 1 1 1 1 1 2 2 2 0 1 2 2 1 1 1 1 1 2 2 2 2 2 3 3 2 2 1
8 8 4 4 5 4 2 2 3 3 4 3 4 4 3 3 2 2 2 1 1 1 2 2 2 0 1 2 1 1 1 1 1 1 1 2 2 3 3 2 2 2 2 1
5 7 4 4 3 3 3 4 4 3 3 3 4 4 3 3 2 2 2 1 1 0 1 2 2 1 1 1 1 1 1 1 1 2 2 1 2 2 2 3 3 2 2 2
5 5 4 4 4 5 4 3 3 3 3 3 3 3 3 3 3 2 2 2 1 1 1 2 2 2 1 1 1 1 1 1 1 1 2 2 1 1 2 2 3 3 2 2
7 5 4 5 3 2 3 4 4 3 3 2 2 3 2 2 2 2 2 1 1 1 1 1 1 1 1 1 1 1 1 1 1 1 2 2 2 2 2 2 2 2 2 2
5 3 4 4 3 2 2 3 3 2 2 2 1 1 2 1 1 1 1 1 1 1 1 0 0 1 1 1 0 1 1 1 1 1 2 2 2 2 2 2 3 2 2 2
2 2 3 3 3 3 2 2 1 1 1 1 1 0 0 1 1 1 1 1 1 0 0 0 0 1 1 1 1 1 1 1 1 1 1 2 2 2 2 2 1 1 2 3
3 3 4 3 2 2 1 0 0 1 1 1 0 0 1 1 1 2 1 0 1 1 0 0 0 1 1 0 1 1 1 1 1 1 1 1 2 2 2 2 2 1 2 2
3 2 2 3 3 3 1 1 2 2 2 1 1 1 1 1 1 1 1 1 1 1 1 1 1 1 0 1 1 1 1 2 2 2 2 2 2 2 2 2 2 1 1 0
2 3 3 3 4 3 2 3 3 2 2 2 2 1 0 0 0 0 1 0 0 1 1 1 1 1 1 1 1 1 1 1 2 2 2 1 1 2 2 2 1 1 0 0
3 4 3 3 3 3 3 2 2 2 2 2 1 1 1 1 2 1 1 0 1 1 1 1 0 1 1 1 1 1 1 1 1 2 1 1 2 1 1 1 1 1 0 0
2 3 3 3 3 2 2 2 2 2 1 1 2 2 2 2 1 1 1 1 1 0 1 1 1 1 1 1 1 1 2 2 2 1 1 1 1 1 1 1 1 1 0 0
2 2 2 2 2 1 2 2 1 1 1 1 2 1 1 1 1 1 1 1 2 2 1 1 0 0 1 1 2 2 2 2 2 1 1 1 1 1 1 1 1 1 0 0
3 2 2 2 2 2 1 1 1 1 1 1 2 2 2 1 1 1 1 1 2 1 1 1 1 1 1 1 2 2 2 1 1 1 1 1 1 1 1 1 1 1 1 1
2 2 2 2 1 2 2 1 1 1 1 1 1 2 1 1 1 1 1 2 1 1 0 1 1 1 2 3 2 2 2 1 1 1 1 1 1 1 1 1 1 1 1 1
2 2 1 1 1 1 1 1 1 1 1 2 2 2 2 2 2 2 1 1 1 1 1 1 1 2 4 3 2 2 1 1 1 1 1 1 1 1 1 2 2 2 2 2
1 1 1 1 0 0 1 1 1 0 1 1 1 1 1 1 1 1 1 1 1 1 1 1 1 2 3 2 2 1 1 1 1 1 1 1 1 1 1 2 2 2 2 3
1 1 0 0 1 1 1 0 0 0 0 0 0 0 1 1 1 1 0 1 1 1 1 1 1 1 2 1 1 1 1 1 1 1 1 1 1 1 2 2 2 2 2 3
1 1 1 1 1 1 0 0 0 0 0 0 0 0 0 0 1 0 0 0 0 1 1 1 0 1 1 1 1 0 0 0 1 0 1 1 1 2 2 2 3 3 3 3
1 1 1 1 1 1 0 1 1 1 1 1 1 0 0 1 1 1 1 1 1 1 1 1 1 1 0 0 0 0 0 0 1 1 1 1 2 2 2 3 3 3 3 3
Wind_Direction
253 261 236 242 254 240 221 221 225 243 246 260 260 257 268 280 294 308 308 307 302 295 296 303 303 298 293 290 286 276 241 211 215 213 208 198 198 199 191 192 195 191 187 188
276 261 256 265 260 245 239 239 240 258 269 260 265 257 268 266 257 268 288 297 304 308 305 302 299 300 299 293 287 269 227 221 206 196 197 197 196 188 184 194 194 187 186 185
269 290 319 272 244 221 221 222 214 233 248 273 278 257 251 252 234 239 261 275 285 292 290 287 289 288 283 282 281 258 224 216 198 195 198 199 193 182 188 198 194 191 190 187
268 355 252 249 220 197 217 247 225 237 261 262 253 262 260 234 219 250 266 273 277 284 294 301 298 300 295 293 279 251 225 203 186 184 194 194 185 187 198 197 197 194 192 190
189 244 274 285 247 186 210 268 226 230 262 281 301 328 293 237 223 241 250 258 267 276 287 298 301 297 301 303 291 236 232 218 203 192 185 184 188 196 203 192 192 194 190 191
182 212 246 253 249 194 133 278 239 211 242 261 9 282 271 265 277 285 289 286 286 300 310 302 306 305 293 280 275 258 257 241 217 196 187 191 194 196 198 182 182 184 189 190
208 231 260 255 235 131 183 250 246 218 234 216 213 231 262 283 289 287 294 301 310 313 305 295 304 314 291 289 276 277 285 255 177 188 192 186 177 179 167 150 143 149 163 176
183 213 253 226 139 188 223 260 256 252 241 232 242 263 272 267 266 265 291 308 317 316 315 320 321 333 291 284 294 320 6 94 147 164 163 153 154 156 146 143 141 141 140 138
197 216 243 183 198 230 245 256 270 266 269 248 248 255 254 251 250 254 260 273 293 286 317 329 336 0 269 294 319 9 59 86 114 122 133 140 149 145 137 139 143 148 150 157
248 260 261 253 257 274 258 257 273 273 270 247 245 246 245 241 242 249 268 273 290 295 308 316 334 352 305 301 348 77 85 79 107 117 108 109 127 137 144 155 158 158 162 169
250 272 300 272 247 259 270 274 279 280 268 247 237 243 237 239 240 246 262 273 255 243 266 298 330 334 324 338 83 102 101 98 106 122 127 116 105 132 149 175 178 169 177 176
234 235 228 260 273 269 270 274 271 275 288 274 230 234 238 241 245 246 250 262 254 252 270 307 333 328 333 345 125 130 117 109 119 108 114 117 116 85 61 90 116 141 150 151
239 255 241 267 280 279 264 277 284 271 259 269 269 227 219 236 248 253 258 257 215 224 239 306 334 326 331 337 76 124 128 124 119 102 112 122 122 119 102 68 70 79 94 98
264 279 270 262 264 281 280 294 315 315 303 282 275 239 191 240 264 258 256 253 219 142 215 181 330 310 319 337 82 96 104 123 111 117 116 119 125 121 122 120 101 71 60 63
274 253 245 268 294 306 306 326 335 308 315 329 337 215 200 210 242 263 276 281 85 92 154 167 264 299 315 36 88 107 113 113 115 108 103 107 111 110 108 108 105 91 69 55
290 286 270 271 275 277 272 247 243 264 275 274 268 253 233 224 248 284 309 140 140 192 221 214 251 290 4 77 94 99 113 111 103 111 109 105 108 115 116 119 118 111 99 61
261 273 269 274 272 267 249 237 231 242 246 240 242 238 183 128 58 349 325 316 191 243 235 209 270 343 44 111 124 124 123 134 118 105 116 126 127 128 130 129 127 120 111 294
238 252 249 245 254 262 263 255 239 235 232 234 221 171 172 186 210 228 246 28 44 17 356 345 347 57 88 124 131 129 127 122 117 119 123 132 127 126 129 133 138 139 103 19
279 269 273 268 258 247 246 246 244 236 227 189 174 190 205 215 217 211 175 138 142 261 299 312 353 84 120 162 123 116 114 112 108 112 120 132 109 115 130 146 155 159 165 139
314 304 289 290 285 248 245 253 241 242 229 179 172 178 202 230 210 185 159 196 237 242 247 251 124 140 176 182 133 121 129 133 133 130 128 131 133 136 146 156 159 168 185 216
307 313 317 314 309 296 268 244 211 227 233 187 186 199 211 225 204 183 170 251 288 282 226 208 143 194 182 157 138 120 130 135 139 145 148 150 152 163 172 178 203 230 228 236
297 303 306 307 304 305 303 268 217 216 211 204 204 194 184 198 197 205 227 234 256 265 151 152 176 201 161 134 119 122 126 134 144 150 160 170 181 196 207 213 225 242 243 239
296 292 294 288 270 280 309 297 228 200 202 209 208 201 198 207 201 194 239 258 258 255 130 162 187 160 124 110 110 122 129 141 158 174 184 195 204 207 212 222 229 234 238 243
298 296 294 298 282 161 294 295 274 216 206 219 222 206 186 188 235 242 232 245 232 210 121 150 131 120 113 105 118 124 133 157 184 194 192 203 211 215 222 229 238 244 243 245
304 305 297 268 244 245 247 260 58 80 105 117 274 240 209 194 199 225 198 198 201 139 91 125 120 99 92 104 125 136 157 194 203 192 190 207 221 229 237 238 238 245 249 250
287 275 263 254 255 266 242 177 188 214 176 206 319 307 122 121 124 117 123 119 146 106 82 74 56 70 82 100 116 139 176 257 310 295 227 237 239 244 249 249 251 252 253 254
331 329 331 333 321 304 232 192 205 227 216 207 228 223 146 128 118 112 108 97 86 83 84 78 73 81 99 116 141 218 242 249 253 258 255 251 250 250 253 253 257 258 258 259